Regional Weather Roundup
Issued by NWS Portland, ME

Home | Current Version | Previous Version | Text Only | Print | Product List | Glossary On
Versions: 1 2 3 4 5 6 7 8 9 10 11 12 13 14 15 16 17 18 19 20 21 22 23 24 25 26 27 28 29 30 31 32 33 34 35 36 37 38 39 40 41 42 43 44 45 46 47 48 49 50
000
ASUS41 KGYX 181210
RWRGYX
WEATHER ROUNDUP FOR MAINE AND NEW HAMPSHIRE
NATIONAL WEATHER SERVICE GRAY ME
800 AM EDT FRI AUG 18 2017

MEZ002-005-006-010-012-015-018-020-021-024-026-027-029-181300-
MAINE

CITY           SKY/WX    TMP DP  RH WIND       PRES   REMARKS
PORTLAND       CLOUDY    65  53  65 SE9       29.97S
6HR MIN TEMP:  60; 6HR MAX TEMP:  65; 6HR PCP: TRACE;

SANFORD        CLOUDY    63  56  78 CALM      29.98R
BAR HARBOR     CLOUDY    59  53  80 CALM      30.01S
WISCASSET      PTSUNNY   62  54  74 CALM      29.99S
6HR MIN TEMP:  54; 6HR MAX TEMP:  62;

ROCKLAND       MOSUNNY   64  58  80 VRB3      29.99S
FRYEBURG       CLOUDY    60  58  92 CALM      29.99S
6HR MIN TEMP:  54; 6HR MAX TEMP:  60;

LEWISTONAUBURN   N/A     60  55  83 CALM      29.98F
AUGUSTA        PTSUNNY   60  53  77 E6        29.98F
6HR MIN TEMP:  57; 6HR MAX TEMP:  60;

WATERVILLE     CLOUDY    59  54  83 CALM      29.96F
BANGOR         CLOUDY    61  52  72 NE3       30.00F
6HR MIN TEMP:  51; 6HR MAX TEMP:  61;

GREENVILLE       N/A     57  50  77 SE5       30.00R
6HR MIN TEMP:  53; 6HR MAX TEMP:  58;

MILLINOCKET    CLOUDY    56  51  84 CALM      30.02S
6HR MIN TEMP:  51; 6HR MAX TEMP:  56;

HOULTON        CLOUDY    57  54  89 CALM      30.00R
6HR MIN TEMP:  46; 6HR MAX TEMP:  57;

PRESQUE ISLE   CLOUDY    52  50  93 CALM      30.01S
6HR MIN TEMP:  47; 6HR MAX TEMP:  52;

FRENCHVILLE    CLOUDY    54  51  90 CALM      30.00S
6HR MIN TEMP:  48; 6HR MAX TEMP:  54;

CARIBOU        CLOUDY    53  50  89 CALM      30.00S
6HR MIN TEMP:  49; 6HR MAX TEMP:  53;

$$

NHZ002-005-008-009-011-012-014-181300-
NEW HAMPSHIRE

CITY           SKY/WX    TMP DP  RH WIND       PRES   REMARKS
PORTSMOUTH     CLOUDY    65  58  77 CALM      29.96R
ROCHESTER      CLOUDY    64  54  69 CALM      29.97R
6HR MIN TEMP:  60; 6HR MAX TEMP:  64;

NASHUA         LGT RAIN  66  63  88 SE5       29.96R
MANCHESTER     CLOUDY    67  57  70 SE6       29.94S
6HR MIN TEMP:  63; 6HR MAX TEMP:  67; 6HR PCP: TRACE;

CONCORD        CLOUDY    65  58  78 CALM      29.96R
6HR MIN TEMP:  59; 6HR MAX TEMP:  65;

PLYMOUTH       LGT RAIN  59  57  92 CALM      29.97R
BERLIN         CLOUDY    57  53  86 CALM      29.97S
6HR MIN TEMP:  51; 6HR MAX TEMP:  57; 6HR PCP: TRACE;

WHITEFIELD     LGT RAIN  65  53  65 VRB5      29.93R
6HR MIN TEMP:  53; 6HR MAX TEMP:  66; 6HR PCP: TRACE;

JAFFREY        CLOUDY    64  62  93 CALM      29.96S
6HR MIN TEMP:  61; 6HR MAX TEMP:  64; 6HR PCP:  0.01;

KEENE            N/A    N/A N/A N/A MISG        N/A
LEBANON        LGT RAIN  62  61  96 CALM      29.91S FOG
6HR MIN TEMP:  60; 6HR MAX TEMP:  63; 6HR PCP:  0.09;

MT WASHINGTON  LGT RAIN  46  46 100 S30         N/A  VSB 1/16
6HR MIN TEMP:  44; 6HR MAX TEMP:  49; 6HR PCP: TRACE;

$$

VTZ005-007-008-181300-
VERMONT

CITY           SKY/WX    TMP DP  RH WIND       PRES   REMARKS
ST JOHNSBURY     N/A     58  58 100 MISG      29.91S
MONTPELIER     RAIN      60  59  96 CALM      29.95S
BURLINGTON     LGT RAIN  63  61  93 S7        29.83F FOG
$$

MAZ007-012-024-CTZ003-RIZ002-NYZ038-NYZ072-181300-
SOUTHERN NEW ENGLAND AND NY

CITY           SKY/WX    TMP DP  RH WIND       PRES   REMARKS
BOSTON         CLOUDY    70  63  78 SE8       29.96S
WORCESTER      CLOUDY    65  63  93 S10       29.97S FOG
NANTUCKET      CLOUDY    67  67 100 SE9       30.00S
PROVIDENCE     CLOUDY    72  70  93 S7        29.97S
HARTFORD       CLOUDY    71  68  90 S6        29.91F
ALBANY         CLOUDY    72  68  87 S13       29.83F FOG
NEW YORK CITY  CLOUDY    76  74  93 S9        29.88F
$$

ANZ081-ANZ082-ANZ150-NHZ014-MEZ023>029-181300-
COASTAL MARINE OBSERVATIONS

STATION/POSITION TIME  TEMP    WIND        PRES    WAVE
                       AIR SEA DIR/SP/G            HT/PER
                 (UTC) (F)     (DEG/KT/KT) (MB)    (FT/S)
MOUNT DESERT ROC 1200   62                 1015.7S
MATINICUS ROCK   1100   59      90/  7/  8 1014.8S
ISLE OF SHOALS   1100   66     190/  5/  6 1014.2S
JEFFREYS LEDGE   1106      66                N/A     2/ 8
CASHES LEDGE BUO 1150   67 68              1014.8F   2/ 9
GEORGES BANK BUO 1050   66 63              1016.4    3/ 8
$$

.............KEY..............
   WCI - WIND CHILL
   TC  - TEMPERATURE IN CELSIUS
   VSB - VISIBILITY IN MILES
   HX  - HEAT INDEX
   FAIR- INDICATES FEW OR NO CLOUDS BELOW 12,000 FT, WITH NO
         SIGNIFICANT WEATHER AND/OR OBSTRUCTIONS TO VISIBILITY.






USA.gov is the U.S. government's official web portal to all federal, state and local government web resources and services.